����,���ϕ���(m/s),���ϕ���,�ő�u�ԕ���(m/s),�ő啗��������,�C��(��),���x(%),10���Ԉړ��ώZ�J��(mm),1���Ԉړ��ώZ�J��(mm),���J��(mm),�݌v�J��(mm),����(���ώZ)(MJ/m2),����(���ώZ)(min),���n�C��(hPa),�C�ʋC��(hPa)
2020-04-06T00:00:00+09:00,1.2,�k,2.7,�k,5.7,70.9,0,0,0,0,17.41,408,1007,1021.4
2020-04-06T00:01:00+09:00,1.3,�k�k��,2.7,�k,5.7,70.8,0,0,0,0,0,0,1007,1021.4
2020-04-06T00:02:00+09:00,1.3,�k,2.7,�k,5.6,71,0,0,0,0,0,0,1007.1,1021.5
2020-04-06T00:03:00+09:00,1.3,�k,2.7,�k,5.5,70.7,0,0,0,0,0,0,1007,1021.4
2020-04-06T00:04:00+09:00,1.2,�k,2.7,�k,5.5,71.2,0,0,0,0,0,0,1007,1021.4
2020-04-06T00:05:00+09:00,1.2,�k,2.7,�k,5.5,71.6,0,0,0,0,0,0,1007,1021.4
2020-04-06T00:06:00+09:00,1.2,�k,2.7,�k,5.6,72.2,0,0,0,0,0,0,1006.9,1021.3
2020-04-06T00:07:00+09:00,1.3,�k,2.7,�k,5.8,72.5,0,0,0,0,0,0,1006.9,1021.3
2020-04-06T00:08:00+09:00,1.3,�k,2.8,�k�k��,5.8,71.6,0,0,0,0,0,0,1006.9,1021.3
2020-04-06T00:09:00+09:00,1.3,�k,2.8,�k�k��,5.6,70.6,0,0,0,0,0,0,1006.9,1021.3
2020-04-06T00:10:00+09:00,1.3,�k,2.8,�k�k��,5.5,70.9,0,0,0,0,0,0,1006.9,1021.3
2020-04-06T00:11:00+09:00,1.2,�k,2.8,�k�k��,5.3,71.4,0,0,0,0,0,0,1006.9,1021.3
2020-04-06T00:12:00+09:00,1.3,�k�k��,2.8,�k�k��,5.2,71.4,0,0,0,0,0,0,1006.9,1021.3
2020-04-06T00:13:00+09:00,1.2,�k�k��,2.8,�k�k��,5.4,72.6,0,0,0,0,0,0,1006.9,1021.3
2020-04-06T00:14:00+09:00,1.2,�k�k��,2.8,�k�k��,5.2,72.5,0,0,0,0,0,0,1006.9,1021.3
2020-04-06T00:15:00+09:00,1.2,�k��,2.8,�k�k��,5.3,72.6,0,0,0,0,0,0,1006.9,1021.3
2020-04-06T00:16:00+09:00,1.1,�k��,2.8,�k�k��,5.3,72.5,0,0,0,0,0,0,1006.8,1021.2
2020-04-06T00:17:00+09:00,1.2,���k��,2.8,�k�k��,5.3,72.1,0,0,0,0,0,0,1006.9,1021.3
2020-04-06T00:18:00+09:00,1.2,���k��,2.4,���k��,5.3,72.1,0,0,0,0,0,0,1006.9,1021.3
2020-04-06T00:19:00+09:00,1.3,���k��,2.4,���k��,5.4,72.4,0,0,0,0,0,0,1006.9,1021.3
2020-04-06T00:20:00+09:00,1.3,�k��,2.4,���k��,5.5,72.2,0,0,0,0,0,0,1006.9,1021.3
2020-04-06T00:21:00+09:00,1.4,�k��,2.4,���k��,5.5,72.1,0,0,0,0,0,0,1006.8,1021.2
2020-04-06T00:22:00+09:00,1.3,�k�k��,2.4,���k��,5.5,71.3,0,0,0,0,0,0,1006.8,1021.2
2020-04-06T00:23:00+09:00,1.4,�k�k��,2.4,���k��,5.6,71.4,0,0,0,0,0,0,1006.9,1021.3
2020-04-06T00:24:00+09:00,1.4,�k,2.4,���k��,5.6,71.2,0,0,0,0,0,0,1006.9,1021.3
2020-04-06T00:25:00+09:00,1.4,�k,2.4,���k��,5.3,70.6,0,0,0,0,0,0,1006.9,1021.3
2020-04-06T00:26:00+09:00,1.4,�k,2.4,���k��,5.1,71.1,0,0,0,0,0,0,1006.9,1021.3
2020-04-06T00:27:00+09:00,1.3,�k,2.4,�k,5.2,72.1,0,0,0,0,0,0,1006.9,1021.3
2020-04-06T00:28:00+09:00,1.2,�k,2.4,�k,5.3,73,0,0,0,0,0,0,1006.9,1021.3
2020-04-06T00:29:00+09:00,1.1,�k,2.2,�k��,5.2,72.9,0,0,0,0,0,0,1006.8,1021.2
2020-04-06T00:30:00+09:00,1,�k,2.2,�k��,5,72.8,0,0,0,0,0,0,1006.8,1021.2
2020-04-06T00:31:00+09:00,1,�k,2.2,�k��,4.8,73.1,0,0,0,0,0,0,1006.8,1021.2
2020-04-06T00:32:00+09:00,1,�k,2.2,�k��,4.9,73.9,0,0,0,0,0,0,1006.8,1021.2
2020-04-06T00:33:00+09:00,1,�k,2.2,�k��,4.9,74.5,0,0,0,0,0,0,1006.8,1021.2
2020-04-06T00:34:00+09:00,1.1,�k,2.4,�k�k��,5,74.6,0,0,0,0,0,0,1006.8,1021.2
2020-04-06T00:35:00+09:00,1.2,�k,2.5,�k�k��,4.9,74.4,0,0,0,0,0,0,1006.8,1021.2
2020-04-06T00:36:00+09:00,1.3,�k,2.5,�k�k��,5.1,74.9,0,0,0,0,0,0,1006.8,1021.2
2020-04-06T00:37:00+09:00,1.4,�k,2.5,�k�k��,5,74.3,0,0,0,0,0,0,1006.8,1021.2
2020-04-06T00:38:00+09:00,1.5,�k,2.5,�k�k��,4.9,73.8,0,0,0,0,0,0,1006.8,1021.2
2020-04-06T00:39:00+09:00,1.5,�k,2.5,�k�k��,4.8,73.5,0,0,0,0,0,0,1006.8,1021.2
2020-04-06T00:40:00+09:00,1.5,�k�k��,2.5,�k�k��,5.1,74.1,0,0,0,0,0,0,1006.8,1021.2
2020-04-06T00:41:00+09:00,1.5,�k�k��,2.5,�k�k��,4.8,73.4,0,0,0,0,0,0,1006.8,1021.2
2020-04-06T00:42:00+09:00,1.5,�k,2.5,�k�k��,4.8,73.2,0,0,0,0,0,0,1006.8,1021.2
2020-04-06T00:43:00+09:00,1.4,�k,2.5,�k�k��,4.7,73.7,0,0,0,0,0,0,1006.8,1021.2
2020-04-06T00:44:00+09:00,1.3,�k,2.5,�k�k��,4.6,74.1,0,0,0,0,0,0,1006.8,1021.2
2020-04-06T00:45:00+09:00,1.3,�k,2.3,�k�k��,4.6,74.6,0,0,0,0,0,0,1006.8,1021.2
2020-04-06T00:46:00+09:00,1.1,�k,2.2,�k�k��,4.6,75.1,0,0,0,0,0,0,1006.8,1021.2
2020-04-06T00:47:00+09:00,1,�k,2.2,�k�k��,4.7,75.5,0,0,0,0,0,0,1006.8,1021.2
2020-04-06T00:48:00+09:00,0.9,�k,2.2,�k�k��,4.7,75.7,0,0,0,0,0,0,1006.8,1021.2
2020-04-06T00:49:00+09:00,0.8,�k,2.1,�k�k��,4.6,75.8,0,0,0,0,0,0,1006.8,1021.2
2020-04-06T00:50:00+09:00,0.8,�k,2.1,�k�k��,4.5,75.8,0,0,0,0,0,0,1006.8,1021.2
2020-04-06T00:51:00+09:00,0.8,�k,2.1,�k�k��,4.5,76.2,0,0,0,0,0,0,1006.8,1021.2
2020-04-06T00:52:00+09:00,0.8,�k,2.1,�k�k��,4.5,76.4,0,0,0,0,0,0,1006.8,1021.2
2020-04-06T00:53:00+09:00,0.8,�k,2.1,�k�k��,4.4,76.5,0,0,0,0,0,0,1006.8,1021.2
2020-04-06T00:54:00+09:00,0.8,�k,2.1,�k�k��,4.5,76.3,0,0,0,0,0,0,1006.8,1021.2
2020-04-06T00:55:00+09:00,0.8,�k,2.1,�k�k��,4.6,76.9,0,0,0,0,0,0,1006.8,1021.2
2020-04-06T00:56:00+09:00,0.9,�k,2.1,�k�k��,4.5,76.9,0,0,0,0,0,0,1006.8,1021.2
2020-04-06T00:57:00+09:00,0.9,�k,2.1,�k�k��,4.6,76.5,0,0,0,0,0,0,1006.8,1021.2
2020-04-06T00:58:00+09:00,1,�k�k��,2.1,�k�k��,4.6,77,0,0,0,0,0,0,1006.8,1021.2
2020-04-06T00:59:00+09:00,1,�k,2.1,�k�k��,4.5,75.7,0,0,0,0,0,0,1006.8,1021.2
2020-04-06T01:00:00+09:00,1,�k,2.1,�k�k��,4.4,75.9,0,0,0,0,0,0,1006.8,1021.2
2020-04-06T01:01:00+09:00,0.9,�k�k��,2.1,�k�k��,4.5,76.7,0,0,0,0,0,0,1006.7,1021.1
2020-04-06T01:02:00+09:00,0.9,�k�k��,2.1,�k�k��,4.5,76.8,0,0,0,0,0,0,1006.7,1021.1
2020-04-06T01:03:00+09:00,0.9,�k�k��,2.1,�k�k��,4.4,76.3,0,0,0,0,0,0,1006.7,1021.1
2020-04-06T01:04:00+09:00,0.8,�k�k��,2.1,�k�k��,4.4,76.6,0,0,0,0,0,0,1006.7,1021.1
2020-04-06T01:05:00+09:00,0.8,�k�k��,2.1,�k�k��,4.4,76.5,0,0,0,0,0,0,1006.7,1021.1
2020-04-06T01:06:00+09:00,0.7,�k�k��,1.7,�k,4.5,76.7,0,0,0,0,0,0,1006.7,1021.1
2020-04-06T01:07:00+09:00,0.7,�k,1.7,�k,4.5,76.8,0,0,0,0,0,0,1006.7,1021.1
2020-04-06T01:08:00+09:00,0.8,�k,2,�k�k��,4.5,76.6,0,0,0,0,0,0,1006.7,1021.1
2020-04-06T01:09:00+09:00,0.8,�k,2,�k�k��,4.5,76.3,0,0,0,0,0,0,1006.8,1021.2
2020-04-06T01:10:00+09:00,0.8,�k,2,�k�k��,4.5,76,0,0,0,0,0,0,1006.8,1021.2
2020-04-06T01:11:00+09:00,0.8,�k,2,�k�k��,4.5,75.7,0,0,0,0,0,0,1006.8,1021.2
2020-04-06T01:12:00+09:00,0.8,�k,2,�k�k��,4.6,75.8,0,0,0,0,0,0,1006.8,1021.2
2020-04-06T01:13:00+09:00,0.8,�k,2,�k�k��,4.6,75.6,0,0,0,0,0,0,1006.8,1021.2
2020-04-06T01:14:00+09:00,0.8,�k,2,�k�k��,4.5,75.5,0,0,0,0,0,0,1006.8,1021.2
2020-04-06T01:15:00+09:00,0.8,�k,2,�k�k��,4.4,75.3,0,0,0,0,0,0,1006.8,1021.2
2020-04-06T01:16:00+09:00,0.8,�k,2,�k�k��,4.4,75.6,0,0,0,0,0,0,1006.8,1021.2
2020-04-06T01:17:00+09:00,0.7,�k,2,�k�k��,4.5,76.1,0,0,0,0,0,0,1006.8,1021.2
2020-04-06T01:18:00+09:00,0.6,�k,1.8,�k,4.4,75.8,0,0,0,0,0,0,1006.8,1021.2
2020-04-06T01:19:00+09:00,0.7,�k,1.8,�k,4.5,76.1,0,0,0,0,0,0,1006.8,1021.2
2020-04-06T01:20:00+09:00,0.7,�k,1.8,�k,4.7,76.2,0,0,0,0,0,0,1006.8,1021.2
2020-04-06T01:21:00+09:00,0.7,�k,1.8,�k,4.6,75.8,0,0,0,0,0,0,1006.8,1021.2
2020-04-06T01:22:00+09:00,0.8,�k,1.8,�k,4.6,75.3,0,0,0,0,0,0,1006.8,1021.2
2020-04-06T01:23:00+09:00,0.8,�k,1.6,�k�k��,4.6,75.1,0,0,0,0,0,0,1006.8,1021.2
2020-04-06T01:24:00+09:00,0.9,�k,2.1,�k�k��,4.7,75.2,0,0,0,0,0,0,1006.8,1021.2
2020-04-06T01:25:00+09:00,1,�k,2.1,�k�k��,4.7,75.1,0,0,0,0,0,0,1006.8,1021.2
2020-04-06T01:26:00+09:00,1.1,�k,2.1,�k�k��,4.7,74.9,0,0,0,0,0,0,1006.8,1021.2
2020-04-06T01:27:00+09:00,1.1,�k,2.1,�k�k��,4.5,74.4,0,0,0,0,0,0,1006.8,1021.2
2020-04-06T01:28:00+09:00,1.1,�k,2.1,�k�k��,4.3,74.4,0,0,0,0,0,0,1006.8,1021.3
2020-04-06T01:29:00+09:00,1,�k,2.1,�k�k��,4.1,74.4,0,0,0,0,0,0,1006.7,1021.2
2020-04-06T01:30:00+09:00,0.9,�k,2.1,�k�k��,4,75.4,0,0,0,0,0,0,1006.7,1021.2
2020-04-06T01:31:00+09:00,1,�k,2.1,�k�k��,4.3,76.7,0,0,0,0,0,0,1006.7,1021.2
2020-04-06T01:32:00+09:00,1,�k,2.1,�k�k��,4.5,77,0,0,0,0,0,0,1006.7,1021.1
2020-04-06T01:33:00+09:00,1,�k,2.1,�k�k��,4.5,76.2,0,0,0,0,0,0,1006.7,1021.1
2020-04-06T01:34:00+09:00,0.9,�k,2.1,�k�k��,4.7,76.2,0,0,0,0,0,0,1006.7,1021.1
2020-04-06T01:35:00+09:00,0.8,�k,1.8,�k��,4.8,76.1,0,0,0,0,0,0,1006.7,1021.1
2020-04-06T01:36:00+09:00,0.9,�k�k��,1.9,�k��,4.7,75.4,0,0,0,0,0,0,1006.7,1021.1
2020-04-06T01:37:00+09:00,0.9,�k�k��,1.9,�k��,4.7,75.1,0,0,0,0,0,0,1006.7,1021.1
2020-04-06T01:38:00+09:00,0.9,�k�k��,1.9,�k��,4.5,75,0,0,0,0,0,0,1006.6,1021
2020-04-06T01:39:00+09:00,0.9,�k,1.9,�k��,4.4,74.6,0,0,0,0,0,0,1006.6,1021
2020-04-06T01:40:00+09:00,0.9,�k,1.9,�k��,4.5,75.3,0,0,0,0,0,0,1006.7,1021.1
2020-04-06T01:41:00+09:00,0.9,�k,1.9,�k��,4.7,76.2,0,0,0,0,0,0,1006.7,1021.1
2020-04-06T01:42:00+09:00,0.8,�k�k��,1.9,�k��,4.7,75.3,0,0,0,0,0,0,1006.6,1021
2020-04-06T01:43:00+09:00,0.9,�k�k��,1.9,�k��,4.5,74.9,0,0,0,0,0,0,1006.7,1021.1
2020-04-06T01:44:00+09:00,0.8,�k�k��,1.9,�k��,4.6,75.5,0,0,0,0,0,0,1006.7,1021.1
2020-04-06T01:45:00+09:00,0.8,�k�k��,1.9,�k��,4.4,75.8,0,0,0,0,0,0,1006.7,1021.1
2020-04-06T01:46:00+09:00,0.7,�k��,1.8,�k��,4.4,75.7,0,0,0,0,0,0,1006.7,1021.1
2020-04-06T01:47:00+09:00,0.6,�k��,1.8,�k��,4.1,75.5,0,0,0,0,0,0,1006.7,1021.2
2020-04-06T01:48:00+09:00,0.6,�k��,1.8,�k��,4.3,76.3,0,0,0,0,0,0,1006.6,1021
2020-04-06T01:49:00+09:00,0.6,�k��,1.8,�k��,4.5,76.9,0,0,0,0,0,0,1006.6,1021
2020-04-06T01:50:00+09:00,0.6,���k��,1.8,�k��,4.6,77.1,0,0,0,0,0,0,1006.6,1021
2020-04-06T01:51:00+09:00,0.5,���k��,1.8,�k��,4.6,76.4,0,0,0,0,0,0,1006.7,1021.1
2020-04-06T01:52:00+09:00,0.4,���k��,1.4,�k��,4.6,76.3,0,0,0,0,0,0,1006.6,1021
2020-04-06T01:53:00+09:00,0.4,�k��,1,�k��,4.5,75.6,0,0,0,0,0,0,1006.6,1021
2020-04-06T01:54:00+09:00,0.4,�k��,1,�k��,4.4,75.2,0,0,0,0,0,0,1006.5,1020.9
2020-04-06T01:55:00+09:00,0.4,�k�k��,1,�k��,4.4,75.6,0,0,0,0,0,0,1006.6,1021
2020-04-06T01:56:00+09:00,0.4,�k�k��,1,�k��,4.5,76.2,0,0,0,0,0,0,1006.6,1021
2020-04-06T01:57:00+09:00,0.5,�k,1.1,�k�k��,4.5,76,0,0,0,0,0,0,1006.6,1021
2020-04-06T01:58:00+09:00,0.5,�k,1.1,�k�k��,4.3,75.5,0,0,0,0,0,0,1006.6,1021
2020-04-06T01:59:00+09:00,0.5,�k,1.1,�k�k��,4.3,75.9,0,0,0,0,0,0,1006.5,1020.9
2020-04-06T02:00:00+09:00,0.4,�k,1.1,�k�k��,4.2,76.2,0,0,0,0,0,0,1006.5,1021
2020-04-06T02:01:00+09:00,0.4,�k,1.1,�k�k��,4.1,76.6,0,0,0,0,0,0,1006.5,1021
2020-04-06T02:02:00+09:00,0.4,�k,1.1,�k�k��,4.1,77.2,0,0,0,0,0,0,1006.5,1021
2020-04-06T02:03:00+09:00,0.4,�k,1.1,�k�k��,4.5,78.1,0,0,0,0,0,0,1006.5,1020.9
2020-04-06T02:04:00+09:00,0.5,�k,1.1,�k�k��,4.1,77.4,0,0,0,0,0,0,1006.4,1020.9
2020-04-06T02:05:00+09:00,0.4,�k�k��,1.1,�k�k��,4,76.9,0,0,0,0,0,0,1006.4,1020.9
2020-04-06T02:06:00+09:00,0.5,�k�k��,1.2,���k��,4,77.3,0,0,0,0,0,0,1006.4,1020.9
2020-04-06T02:07:00+09:00,0.5,�k��,1.2,���k��,4,77.8,0,0,0,0,0,0,1006.5,1021
2020-04-06T02:08:00+09:00,0.5,�k��,1.2,���k��,3.8,77.9,0,0,0,0,0,0,1006.5,1021
2020-04-06T02:09:00+09:00,0.5,�k�k��,1.2,���k��,4,78.6,0,0,0,0,0,0,1006.5,1021
2020-04-06T02:10:00+09:00,0.6,�k��,1.2,���k��,3.9,79,0,0,0,0,0,0,1006.5,1021
2020-04-06T02:11:00+09:00,0.6,�k��,1.3,�k��,4,79,0,0,0,0,0,0,1006.5,1021
2020-04-06T02:12:00+09:00,0.6,�k��,1.4,�k��,3.9,78.8,0,0,0,0,0,0,1006.5,1021
2020-04-06T02:13:00+09:00,0.6,�k��,1.4,�k��,4.1,79.1,0,0,0,0,0,0,1006.5,1021
2020-04-06T02:14:00+09:00,0.6,�k��,1.4,�k��,4,78.8,0,0,0,0,0,0,1006.5,1021
2020-04-06T02:15:00+09:00,0.6,�k��,1.4,�k��,3.8,78.3,0,0,0,0,0,0,1006.5,1021
2020-04-06T02:16:00+09:00,0.5,�k��,1.4,�k��,3.7,78.2,0,0,0,0,0,0,1006.5,1021
2020-04-06T02:17:00+09:00,0.5,�k��,1.4,�k��,3.9,79.2,0,0,0,0,0,0,1006.5,1021
2020-04-06T02:18:00+09:00,0.6,�k�k��,1.4,�k��,3.9,79.5,0,0,0,0,0,0,1006.5,1021
2020-04-06T02:19:00+09:00,0.6,�k�k��,1.4,�k��,4.1,79.5,0,0,0,0,0,0,1006.5,1021
2020-04-06T02:20:00+09:00,0.6,�k,1.4,�k��,4,78.9,0,0,0,0,0,0,1006.5,1021
2020-04-06T02:21:00+09:00,0.5,�k,1.4,�k��,4,78.5,0,0,0,0,0,0,1006.5,1021
2020-04-06T02:22:00+09:00,0.5,�k,1.4,�k��,4,78.7,0,0,0,0,0,0,1006.5,1021
2020-04-06T02:23:00+09:00,0.5,�k,1.4,�k��,3.9,78.5,0,0,0,0,0,0,1006.5,1021
2020-04-06T02:24:00+09:00,0.5,�k,1.4,�k��,3.9,78.4,0,0,0,0,0,0,1006.5,1021
2020-04-06T02:25:00+09:00,0.6,�k,1.4,�k��,3.9,78.3,0,0,0,0,0,0,1006.5,1021
2020-04-06T02:26:00+09:00,0.7,�k,1.7,�k,3.8,78.4,0,0,0,0,0,0,1006.5,1021
2020-04-06T02:27:00+09:00,0.7,�k,1.7,�k,3.9,78.9,0,0,0,0,0,0,1006.4,1020.9
2020-04-06T02:28:00+09:00,0.7,�k,1.7,�k,4.1,79.2,0,0,0,0,0,0,1006.4,1020.9
2020-04-06T02:29:00+09:00,0.8,�k,1.7,�k,4.1,78.8,0,0,0,0,0,0,1006.4,1020.9
2020-04-06T02:30:00+09:00,0.8,�k,1.7,�k,4,78.2,0,0,0,0,0,0,1006.4,1020.9
2020-04-06T02:31:00+09:00,0.9,�k�k��,1.7,�k,4,78,0,0,0,0,0,0,1006.4,1020.9
2020-04-06T02:32:00+09:00,0.9,�k�k��,1.7,�k,3.8,77.8,0,0,0,0,0,0,1006.4,1020.9
2020-04-06T02:33:00+09:00,0.8,�k,1.7,�k,3.8,78.3,0,0,0,0,0,0,1006.4,1020.9
2020-04-06T02:34:00+09:00,0.8,�k,1.7,�k,3.6,78.1,0,0,0,0,0,0,1006.3,1020.8
2020-04-06T02:35:00+09:00,0.8,�k,1.7,�k,3.8,79.1,0,0,0,0,0,0,1006.3,1020.8
2020-04-06T02:36:00+09:00,0.7,�k,1.7,�k�k��,3.6,79.2,0,0,0,0,0,0,1006.4,1020.9
2020-04-06T02:37:00+09:00,0.7,�k�k��,1.5,�k��,3.7,79.2,0,0,0,0,0,0,1006.4,1020.9
2020-04-06T02:38:00+09:00,0.6,�k�k��,1.5,�k��,3.6,79.6,0,0,0,0,0,0,1006.3,1020.8
2020-04-06T02:39:00+09:00,0.6,�k��,1.5,�k��,3.6,79.8,0,0,0,0,0,0,1006.3,1020.8
2020-04-06T02:40:00+09:00,0.5,�k��,1.1,���k��,3.7,80.2,0,0,0,0,0,0,1006.3,1020.8
2020-04-06T02:41:00+09:00,0.5,���k��,1.1,���k��,3.8,80.3,0,0,0,0,0,0,1006.3,1020.8
2020-04-06T02:42:00+09:00,0.5,���k��,1.1,���k��,3.7,80,0,0,0,0,0,0,1006.3,1020.8
2020-04-06T02:43:00+09:00,0.5,���k��,1.1,���k��,3.7,79.9,0,0,0,0,0,0,1006.3,1020.8
2020-04-06T02:44:00+09:00,0.5,���k��,1.1,���k��,3.7,79.8,0,0,0,0,0,0,1006.3,1020.8
2020-04-06T02:45:00+09:00,0.5,���k��,1.1,���k��,3.7,80,0,0,0,0,0,0,1006.2,1020.7
2020-04-06T02:46:00+09:00,0.6,���k��,1.1,���k��,3.6,80.1,0,0,0,0,0,0,1006.2,1020.7
2020-04-06T02:47:00+09:00,0.5,�k��,1.1,���k��,3.5,80,0,0,0,0,0,0,1006.2,1020.7
2020-04-06T02:48:00+09:00,0.5,�k��,1.1,���k��,3.6,80.4,0,0,0,0,0,0,1006.3,1020.8
2020-04-06T02:49:00+09:00,0.4,�k��,1,��,3.8,80.8,0,0,0,0,0,0,1006.2,1020.7
2020-04-06T02:50:00+09:00,0.4,�k��,0.8,�k,3.8,80.7,0,0,0,0,0,0,1006.2,1020.7
2020-04-06T02:51:00+09:00,0.4,�k��,0.8,�k,3.6,79.8,0,0,0,0,0,0,1006.2,1020.7
2020-04-06T02:52:00+09:00,0.4,�k��,0.8,�k,3.6,79.7,0,0,0,0,0,0,1006.2,1020.7
2020-04-06T02:53:00+09:00,0.3,�k��,0.8,�k,3.7,80.1,0,0,0,0,0,0,1006.2,1020.7
2020-04-06T02:54:00+09:00,0.3,�k��,0.8,�k,3.8,80.5,0,0,0,0,0,0,1006.2,1020.7
2020-04-06T02:55:00+09:00,0.3,�k��,0.8,�k,3.7,80.1,0,0,0,0,0,0,1006.1,1020.6
2020-04-06T02:56:00+09:00,0.3,�k��,0.8,�k,3.6,79.5,0,0,0,0,0,0,1006.2,1020.7
2020-04-06T02:57:00+09:00,0.2,�É�,0.8,�k,3.5,79.6,0,0,0,0,0,0,1006.1,1020.6
2020-04-06T02:58:00+09:00,0.2,�É�,0.4,���k��,3.5,79.7,0,0,0,0,0,0,1006.1,1020.6
2020-04-06T02:59:00+09:00,0.2,�É�,0.4,���k��,3.4,80.1,0,0,0,0,0,0,1006.1,1020.6
2020-04-06T03:00:00+09:00,0.2,�É�,0.6,�k��,3.5,80.4,0,0,0,0,0,0,1006.1,1020.6
2020-04-06T03:01:00+09:00,0.2,�É�,0.8,�k�k��,3.8,81.7,0,0,0,0,0,0,1006.1,1020.6
2020-04-06T03:02:00+09:00,0.3,�k�k��,0.8,�k�k��,3.8,81.2,0,0,0,0,0,0,1006.1,1020.6
2020-04-06T03:03:00+09:00,0.3,�k�k��,0.8,�k�k��,3.6,80,0,0,0,0,0,0,1006.1,1020.6
2020-04-06T03:04:00+09:00,0.2,�É�,0.8,�k�k��,3.6,79.8,0,0,0,0,0,0,1006.1,1020.6
2020-04-06T03:05:00+09:00,0.3,�k�k��,0.8,�k�k��,3.5,79.6,0,0,0,0,0,0,1006.1,1020.6
2020-04-06T03:06:00+09:00,0.3,�k�k��,0.8,�k�k��,3.3,79.8,0,0,0,0,0,0,1006.1,1020.6
2020-04-06T03:07:00+09:00,0.3,�k,0.8,�k�k��,3.4,80.1,0,0,0,0,0,0,1006.1,1020.6
2020-04-06T03:08:00+09:00,0.4,�k,1,�k�k��,3.6,80.8,0,0,0,0,0,0,1006.1,1020.6
2020-04-06T03:09:00+09:00,0.5,�k,1.3,�k�k��,3.5,81.1,0,0,0,0,0,0,1006.1,1020.6
2020-04-06T03:10:00+09:00,0.5,�k,1.4,�k,3.6,80.8,0,0,0,0,0,0,1006.1,1020.6
2020-04-06T03:11:00+09:00,0.5,�k,1.4,�k,3.5,80.7,0,0,0,0,0,0,1006,1020.5
2020-04-06T03:12:00+09:00,0.5,�k,1.4,�k,3.3,80.3,0,0,0,0,0,0,1006,1020.5
2020-04-06T03:13:00+09:00,0.5,�k,1.4,�k,3.5,80.6,0,0,0,0,0,0,1006,1020.5
2020-04-06T03:14:00+09:00,0.5,�k�k��,1.4,�k,3.6,81.1,0,0,0,0,0,0,1006,1020.5
2020-04-06T03:15:00+09:00,0.5,�k�k��,1.4,�k,3.4,80.8,0,0,0,0,0,0,1006,1020.5
2020-04-06T03:16:00+09:00,0.5,�k�k��,1.4,�k,3.4,80.1,0,0,0,0,0,0,1005.9,1020.4
2020-04-06T03:17:00+09:00,0.5,�k�k��,1.4,�k,3.5,80.7,0,0,0,0,0,0,1006,1020.5
2020-04-06T03:18:00+09:00,0.5,�k�k��,1.4,�k,3.4,80.5,0,0,0,0,0,0,1006,1020.5
2020-04-06T03:19:00+09:00,0.4,�k,1.4,�k,3.3,80.7,0,0,0,0,0,0,1006,1020.5
2020-04-06T03:20:00+09:00,0.4,�k,1.1,�k��,3.3,80.9,0,0,0,0,0,0,1005.9,1020.4
2020-04-06T03:21:00+09:00,0.4,�k,1.1,�k��,3.3,81.2,0,0,0,0,0,0,1005.9,1020.4
2020-04-06T03:22:00+09:00,0.4,�k,1.1,�k��,3.3,81.4,0,0,0,0,0,0,1006,1020.5
2020-04-06T03:23:00+09:00,0.4,�k,1.1,�k��,3.3,81.5,0,0,0,0,0,0,1006,1020.5
2020-04-06T03:24:00+09:00,0.4,�k,1.1,�k��,3.4,81.7,0,0,0,0,0,0,1006,1020.5
2020-04-06T03:25:00+09:00,0.4,�k,1.1,�k��,3.5,81.9,0,0,0,0,0,0,1006,1020.5
2020-04-06T03:26:00+09:00,0.5,�k,1.4,�k�k��,3.6,82.2,0,0,0,0,0,0,1006,1020.5
2020-04-06T03:27:00+09:00,0.6,�k,1.4,�k�k��,3.5,81.5,0,0,0,0,0,0,1005.9,1020.4
2020-04-06T03:28:00+09:00,0.6,�k,1.4,�k�k��,3.5,81.2,0,0,0,0,0,0,1005.9,1020.4
2020-04-06T03:29:00+09:00,0.7,�k�k��,1.4,�k�k��,3.6,81.5,0,0,0,0,0,0,1005.9,1020.4
2020-04-06T03:30:00+09:00,0.7,�k�k��,1.4,�k�k��,3.6,81.3,0,0,0,0,0,0,1005.9,1020.4
2020-04-06T03:31:00+09:00,0.7,�k�k��,1.4,�k�k��,3.5,80.6,0,0,0,0,0,0,1005.9,1020.4
2020-04-06T03:32:00+09:00,0.7,�k�k��,1.4,�k�k��,3.6,80.7,0,0,0,0,0,0,1005.9,1020.4
2020-04-06T03:33:00+09:00,0.7,�k�k��,1.4,�k�k��,3.4,80.8,0,0,0,0,0,0,1005.9,1020.4
2020-04-06T03:34:00+09:00,0.7,�k�k��,1.4,�k�k��,3.2,80.7,0,0,0,0,0,0,1005.9,1020.4
2020-04-06T03:35:00+09:00,0.7,�k�k��,1.4,�k�k��,3.4,80.8,0,0,0,0,0,0,1005.9,1020.4
2020-04-06T03:36:00+09:00,0.7,�k�k��,1.4,�k�k��,3.7,82.4,0,0,0,0,0,0,1005.9,1020.4
2020-04-06T03:37:00+09:00,0.6,�k�k��,1.4,�k�k��,3.8,82.5,0,0,0,0,0,0,1005.9,1020.4
2020-04-06T03:38:00+09:00,0.6,�k,1.4,�k�k��,3.9,81.6,0,0,0,0,0,0,1005.9,1020.4
2020-04-06T03:39:00+09:00,0.6,�k,1.4,�k�k��,3.5,80.2,0,0,0,0,0,0,1005.9,1020.4
2020-04-06T03:40:00+09:00,0.6,�k�k��,1.4,�k�k��,3.3,79.6,0,0,0,0,0,0,1005.9,1020.4
2020-04-06T03:41:00+09:00,0.6,�k�k��,1.4,�k�k��,3.4,80.2,0,0,0,0,0,0,1005.9,1020.4
2020-04-06T03:42:00+09:00,0.6,�k�k��,1.4,�k�k��,3.3,80.9,0,0,0,0,0,0,1005.9,1020.4
2020-04-06T03:43:00+09:00,0.6,�k,1.4,�k�k��,3.4,81.1,0,0,0,0,0,0,1005.9,1020.4
2020-04-06T03:44:00+09:00,0.7,�k,1.9,�k�k��,3.5,81.7,0,0,0,0,0,0,1005.9,1020.4
2020-04-06T03:45:00+09:00,0.8,�k,1.9,�k�k��,3.7,81.9,0,0,0,0,0,0,1005.9,1020.4
2020-04-06T03:46:00+09:00,0.8,�k�k��,1.9,�k�k��,3.8,81.5,0,0,0,0,0,0,1005.9,1020.4
2020-04-06T03:47:00+09:00,0.8,�k,1.9,�k�k��,3.7,80.8,0,0,0,0,0,0,1005.9,1020.4
2020-04-06T03:48:00+09:00,0.8,�k,1.9,�k�k��,3.8,80.1,0,0,0,0,0,0,1005.9,1020.4
2020-04-06T03:49:00+09:00,0.8,�k,1.9,�k�k��,3.6,79.9,0,0,0,0,0,0,1006,1020.5
2020-04-06T03:50:00+09:00,0.8,�k,1.9,�k�k��,3.6,79.6,0,0,0,0,0,0,1006,1020.5
2020-04-06T03:51:00+09:00,0.9,�k,1.9,�k�k��,3.7,80.1,0,0,0,0,0,0,1006,1020.5
2020-04-06T03:52:00+09:00,0.9,�k�k��,1.9,�k�k��,3.7,79.8,0,0,0,0,0,0,1006,1020.5
2020-04-06T03:53:00+09:00,0.9,�k�k��,1.9,�k�k��,3.6,79.8,0,0,0,0,0,0,1006,1020.5
2020-04-06T03:54:00+09:00,0.7,�k�k��,1.7,��,3.4,79.4,0,0,0,0,0,0,1006,1020.5
2020-04-06T03:55:00+09:00,0.6,�k�k��,1.7,��,3.2,79.2,0,0,0,0,0,0,1006,1020.5
2020-04-06T03:56:00+09:00,0.6,�k��,1.8,��,3.4,80.1,0,0,0,0,0,0,1006,1020.5
2020-04-06T03:57:00+09:00,0.7,�k��,1.8,��,3.4,80.9,0,0,0,0,0,0,1006,1020.5
2020-04-06T03:58:00+09:00,0.7,���k��,1.8,��,3.4,80.9,0,0,0,0,0,0,1006,1020.5
2020-04-06T03:59:00+09:00,0.7,��,1.8,��,3.5,81.4,0,0,0,0,0,0,1006,1020.5
2020-04-06T04:00:00+09:00,0.6,��,1.8,��,3.6,81.3,0,0,0,0,0,0,1006,1020.5
2020-04-06T04:01:00+09:00,0.5,��,1.8,��,3.6,81.1,0,0,0,0,0,0,1006,1020.5
2020-04-06T04:02:00+09:00,0.5,��,1.8,��,3.5,80.6,0,0,0,0,0,0,1006,1020.5
2020-04-06T04:03:00+09:00,0.5,���k��,1.8,��,3.5,80.1,0,0,0,0,0,0,1006,1020.5
2020-04-06T04:04:00+09:00,0.5,���k��,1.8,��,3.8,80.9,0,0,0,0,0,0,1006.1,1020.6
2020-04-06T04:05:00+09:00,0.4,���k��,1.8,��,3.6,80,0,0,0,0,0,0,1006.1,1020.6
2020-04-06T04:06:00+09:00,0.3,�k��,1.6,���쐼,3.6,79.6,0,0,0,0,0,0,1006.1,1020.6
2020-04-06T04:07:00+09:00,0.3,�k,1.2,�쐼,3.8,80.3,0,0,0,0,0,0,1006.1,1020.6
2020-04-06T04:08:00+09:00,0.4,�k,1.3,�k��,3.8,80.6,0,0,0,0,0,0,1006.1,1020.6
2020-04-06T04:09:00+09:00,0.4,�k�k��,1.3,�k��,3.7,79.8,0,0,0,0,0,0,1006.1,1020.6
2020-04-06T04:10:00+09:00,0.3,�k�k��,1.3,�k��,3.3,78.5,0,0,0,0,0,0,1006.2,1020.7
2020-04-06T04:11:00+09:00,0.3,�k��,1.3,�k��,3.3,78.6,0,0,0,0,0,0,1006.2,1020.7
2020-04-06T04:12:00+09:00,0.3,�k��,1.3,�k��,3.5,80.2,0,0,0,0,0,0,1006.1,1020.6
2020-04-06T04:13:00+09:00,0.3,�k�k��,1.3,�k��,3.5,80.4,0,0,0,0,0,0,1006.1,1020.6
2020-04-06T04:14:00+09:00,0.3,�k��,1.3,�k��,3.4,80.3,0,0,0,0,0,0,1006.1,1020.6
2020-04-06T04:15:00+09:00,0.3,���k��,1.3,�k��,3.4,80.7,0,0,0,0,0,0,1006.1,1020.6
2020-04-06T04:16:00+09:00,0.3,���k��,1.3,�k��,3.4,80.6,0,0,0,0,0,0,1006.1,1020.6
2020-04-06T04:17:00+09:00,0.3,���k��,1.3,�k��,3.6,81.5,0,0,0,0,0,0,1006.1,1020.6
2020-04-06T04:18:00+09:00,0.2,�É�,1,��,3.6,82.1,0,0,0,0,0,0,1006.2,1020.7
2020-04-06T04:19:00+09:00,0.2,�É�,0.9,�k�k��,3.8,82.4,0,0,0,0,0,0,1006.2,1020.7
2020-04-06T04:20:00+09:00,0.3,�k��,1.3,��쐼,3.8,82.1,0,0,0,0,0,0,1006.2,1020.7
2020-04-06T04:21:00+09:00,0.3,�k�k��,1.4,�쐼,3.8,81.3,0,0,0,0,0,0,1006.1,1020.6
2020-04-06T04:22:00+09:00,0.4,���k��,1.4,�쐼,3.6,80.7,0,0,0,0,0,0,1006.2,1020.7
2020-04-06T04:23:00+09:00,0.4,���k��,1.4,�쐼,3.6,80.3,0,0,0,0,0,0,1006.2,1020.7
2020-04-06T04:24:00+09:00,0.4,��,1.4,�쐼,3.8,81.2,0,0,0,0,0,0,1006.2,1020.7
2020-04-06T04:25:00+09:00,0.4,���쓌,1.4,�쐼,3.7,80.8,0,0,0,0,0,0,1006.1,1020.6
2020-04-06T04:26:00+09:00,0.4,���k��,1.4,�쐼,3.7,80.6,0,0,0,0,0,0,1006.2,1020.7
2020-04-06T04:27:00+09:00,0.4,���쐼,1.4,�쐼,3.9,81.6,0,0,0,0,0,0,1006.2,1020.7
2020-04-06T04:28:00+09:00,0.4,��쐼,1.4,�쐼,3.8,81.1,0,0,0,0,0,0,1006.2,1020.7
2020-04-06T04:29:00+09:00,0.4,�쓌,1.4,�쐼,3.7,80.1,0,0,0,0,0,0,1006.2,1020.7
2020-04-06T04:30:00+09:00,0.4,��,1.4,�쐼,3.7,80.4,0,0,0,0,0,0,1006.2,1020.7
2020-04-06T04:31:00+09:00,0.3,��,1.1,���k��,3.6,80.4,0,0,0,0,0,0,1006.2,1020.7
2020-04-06T04:32:00+09:00,0.3,��,1.1,���k��,3.5,80.4,0,0,0,0,0,0,1006.2,1020.7
2020-04-06T04:33:00+09:00,0.2,�É�,1.1,���k��,3.5,80.6,0,0,0,0,0,0,1006.2,1020.7
2020-04-06T04:34:00+09:00,0.2,�É�,1.1,���k��,3.5,81.3,0,0,0,0,0,0,1006.3,1020.8
2020-04-06T04:35:00+09:00,0.3,���k��,1.7,��,3.2,80.6,0,0,0,0,0,0,1006.2,1020.7
2020-04-06T04:36:00+09:00,0.4,���k��,1.7,��,3.3,81.8,0,0,0,0,0,0,1006.3,1020.8
2020-04-06T04:37:00+09:00,0.4,��,1.7,��,3.3,82,0,0,0,0,0,0,1006.2,1020.7
2020-04-06T04:38:00+09:00,0.4,���쐼,1.7,��,3.5,82.4,0,0,0,0,0,0,1006.2,1020.7
2020-04-06T04:39:00+09:00,0.4,��,1.7,��,3.7,83,0,0,0,0,0,0,1006.3,1020.8
2020-04-06T04:40:00+09:00,0.4,��,1.7,��,3.7,82.8,0,0,0,0,0,0,1006.4,1020.9
2020-04-06T04:41:00+09:00,0.4,��,1.7,��,3.6,82.1,0,0,0,0,0,0,1006.4,1020.9
2020-04-06T04:42:00+09:00,0.4,��,1.7,��,3.4,81.1,0,0,0,0,0,0,1006.3,1020.8
2020-04-06T04:43:00+09:00,0.4,��,1.7,��,3.7,82,0,0,0,0,0,0,1006.4,1020.9
2020-04-06T04:44:00+09:00,0.5,��,1.7,��,3.6,82.1,0,0,0,0,0,0,1006.4,1020.9
2020-04-06T04:45:00+09:00,0.4,���쐼,1.2,�쐼,3.7,81.6,0,0,0,0,0,0,1006.4,1020.9
2020-04-06T04:46:00+09:00,0.5,���쐼,1.5,��쐼,3.5,81.2,0,0,0,0,0,0,1006.4,1020.9
2020-04-06T04:47:00+09:00,0.5,���쐼,1.5,��쐼,3.3,80.6,0,0,0,0,0,0,1006.4,1020.9
2020-04-06T04:48:00+09:00,0.5,���쐼,1.5,��쐼,3.7,82.1,0,0,0,0,0,0,1006.4,1020.9
2020-04-06T04:49:00+09:00,0.5,�쐼,1.5,��쐼,3.4,82.3,0,0,0,0,0,0,1006.4,1020.9
2020-04-06T04:50:00+09:00,0.5,�쐼,1.5,��쐼,3.7,81.9,0,0,0,0,0,0,1006.5,1021
2020-04-06T04:51:00+09:00,0.5,�쐼,1.5,��쐼,3.3,81.5,0,0,0,0,0,0,1006.5,1021
2020-04-06T04:52:00+09:00,0.6,�쐼,1.5,��쐼,3.2,81.4,0,0,0,0,0,0,1006.5,1021
2020-04-06T04:53:00+09:00,0.6,�쐼,1.5,��쐼,3.6,82.8,0,0,0,0,0,0,1006.5,1021
2020-04-06T04:54:00+09:00,0.6,�쐼,1.5,��쐼,3.6,84.2,0,0,0,0,0,0,1006.6,1021.1
2020-04-06T04:55:00+09:00,0.6,�쐼,1.5,��쐼,3.2,82.4,0,0,0,0,0,0,1006.5,1021
2020-04-06T04:56:00+09:00,0.6,�쐼,2,��쐼,3.4,81.9,0,0,0,0,0,0,1006.5,1021
2020-04-06T04:57:00+09:00,0.7,�쐼,2.2,��쐼,3.3,82.9,0,0,0,0,0,0,1006.5,1021
2020-04-06T04:58:00+09:00,0.8,�쐼,2.2,��쐼,3.2,82.6,0,0,0,0,0,0,1006.5,1021
2020-04-06T04:59:00+09:00,0.8,�쐼,2.2,��쐼,3.5,83.8,0,0,0,0,0,0,1006.6,1021.1
2020-04-06T05:00:00+09:00,0.8,�쐼,2.2,��쐼,3.6,84.8,0,0,0,0,0,0,1006.6,1021.1
2020-04-06T05:01:00+09:00,0.8,���쐼,2.2,��쐼,3.5,84.1,0,0,0,0,0,0,1006.6,1021.1
2020-04-06T05:02:00+09:00,0.8,���쐼,2.2,��쐼,3.2,82.9,0,0,0,0,0,0,1006.6,1021.1
2020-04-06T05:03:00+09:00,0.7,���쐼,2.2,��쐼,3.4,83.4,0,0,0,0,0,0,1006.6,1021.1
2020-04-06T05:04:00+09:00,0.7,���쐼,2.2,��쐼,3.7,84.1,0,0,0,0,0,0,1006.6,1021.1